Time,TemperatureF,DewpointF,PressureIn,WindDirection,WindDirectionDegrees,WindSpeedMPH,WindSpeedGustMPH,Humidity,HourlyPrecipIn,Conditions,Clouds,dailyrainin,SolarRadiationWatts/m^2,SoftwareType,DateUTC
2013-03-27 00:12:00,37.5,26.0,30.09,NNW,330,2.0,5.0,63,0.00,,,0.00,0,weatherlink.com 1.10,2013-03-27 06:12:00,
2013-03-27 00:27:00,36.4,26.0,30.09,NNW,343,0.0,2.0,66,0.00,,,0.00,0,weatherlink.com 1.10,2013-03-27 06:27:00,
2013-03-27 00:42:00,35.5,25.0,30.10,NE,48,4.0,5.0,67,0.00,,,0.00,0,weatherlink.com 1.10,2013-03-27 06:42:00,
2013-03-27 00:57:00,35.5,26.0,30.10,NNE,33,5.0,7.0,68,0.00,,,0.00,0,weatherlink.com 1.10,2013-03-27 06:57:00,
2013-03-27 01:12:00,34.8,26.0,30.10,NE,38,5.0,6.0,69,0.00,,,0.00,0,weatherlink.com 1.10,2013-03-27 07:12:00,
2013-03-27 01:27:00,35.3,26.0,30.10,NE,43,2.0,5.0,68,0.00,,,0.00,0,weatherlink.com 1.10,2013-03-27 07:27:00,
2013-03-27 01:42:00,35.3,26.0,30.10,NE,38,4.0,6.0,68,0.00,,,0.00,0,weatherlink.com 1.10,2013-03-27 07:42:00,
2013-03-27 01:57:00,34.5,26.0,30.10,NE,38,1.0,4.0,71,0.00,,,0.00,0,weatherlink.com 1.10,2013-03-27 07:57:00,
2013-03-27 02:12:00,34.4,26.0,30.10,NE,55,2.0,4.0,71,0.00,,,0.00,0,weatherlink.com 1.10,2013-03-27 08:12:00,
2013-03-27 02:27:00,34.1,26.0,30.10,NE,55,0.0,2.0,72,0.00,,,0.00,0,weatherlink.com 1.10,2013-03-27 08:27:00,
2013-03-27 02:42:00,34.0,26.0,30.10,NE,55,0.0,2.0,72,0.00,,,0.00,0,weatherlink.com 1.10,2013-03-27 08:42:00,
2013-03-27 02:58:00,32.8,25.0,30.11,NNE,30,1.0,2.0,73,0.00,,,0.00,0,weatherlink.com 1.10,2013-03-27 08:58:00,
2013-03-27 03:13:00,31.7,25.0,30.11,NNE,30,0.0,3.0,76,0.00,,,0.00,0,weatherlink.com 1.10,2013-03-27 09:13:00,
2013-03-27 03:28:00,31.4,25.0,30.11,NNE,30,0.0,2.0,77,0.00,,,0.00,0,weatherlink.com 1.10,2013-03-27 09:28:00,
2013-03-27 03:43:00,31.3,25.0,30.11,NNE,30,2.0,2.0,78,0.00,,,0.00,0,weatherlink.com 1.10,2013-03-27 09:43:00,
2013-03-27 03:58:00,32.3,26.0,30.11,NNE,31,1.0,4.0,76,0.00,,,0.00,0,weatherlink.com 1.10,2013-03-27 09:58:00,
2013-03-27 04:13:00,31.9,25.0,30.10,North,358,0.0,3.0,77,0.00,,,0.00,0,weatherlink.com 1.10,2013-03-27 10:13:00,
2013-03-27 04:28:00,31.4,25.0,30.11,North,358,0.0,2.0,77,0.00,,,0.00,0,weatherlink.com 1.10,2013-03-27 10:28:00,
2013-03-27 04:43:00,30.7,25.0,30.11,North,358,0.0,1.0,79,0.00,,,0.00,0,weatherlink.com 1.10,2013-03-27 10:43:00,
2013-03-27 04:58:00,30.9,25.0,30.11,North,358,0.0,1.0,78,0.00,,,0.00,0,weatherlink.com 1.10,2013-03-27 10:58:00,
2013-03-27 05:13:00,30.9,25.0,30.11,North,358,0.0,0.0,79,0.00,,,0.00,0,weatherlink.com 1.10,2013-03-27 11:13:00,
2013-03-27 05:28:00,30.0,25.0,30.12,North,358,0.0,0.0,81,0.00,,,0.00,0,weatherlink.com 1.10,2013-03-27 11:28:00,
2013-03-27 05:43:00,29.9,25.0,30.11,North,358,0.0,0.0,82,0.00,,,0.00,0,weatherlink.com 1.10,2013-03-27 11:43:00,
2013-03-27 05:58:00,30.2,25.0,30.12,North,358,0.0,2.0,82,0.00,,,0.00,0,weatherlink.com 1.10,2013-03-27 11:58:00,
2013-03-27 06:13:00,30.7,26.0,30.12,North,358,1.0,1.0,81,0.00,,,0.00,0,weatherlink.com 1.10,2013-03-27 12:13:00,
2013-03-27 06:28:00,30.9,26.0,30.12,North,358,0.0,0.0,81,0.00,,,0.00,0,weatherlink.com 1.10,2013-03-27 12:28:00,
2013-03-27 06:43:00,29.5,26.0,30.12,North,358,0.0,0.0,85,0.00,,,0.00,0,weatherlink.com 1.10,2013-03-27 12:43:00,
2013-03-27 06:58:00,29.3,26.0,30.13,North,358,0.0,1.0,86,0.00,,,0.00,0,weatherlink.com 1.10,2013-03-27 12:58:00,
2013-03-27 07:13:00,29.1,26.0,30.13,North,358,0.0,0.0,87,0.00,,,0.00,0,weatherlink.com 1.10,2013-03-27 13:13:00,
2013-03-27 07:28:00,28.9,26.0,30.13,North,358,0.0,0.0,88,0.00,,,0.00,0,weatherlink.com 1.10,2013-03-27 13:28:00,
2013-03-27 07:43:00,29.6,27.0,30.13,North,358,0.0,1.0,88,0.00,,,0.00,12,weatherlink.com 1.10,2013-03-27 13:43:00,
2013-03-27 07:58:00,29.8,26.0,30.13,North,358,0.0,2.0,87,0.00,,,0.00,21,weatherlink.com 1.10,2013-03-27 13:58:00,
2013-03-27 08:13:00,30.6,27.0,30.14,North,358,0.0,2.0,87,0.00,,,0.00,33,weatherlink.com 1.10,2013-03-27 14:13:00,
2013-03-27 08:28:00,30.2,27.0,30.14,North,358,0.0,0.0,87,0.00,,,0.00,42,weatherlink.com 1.10,2013-03-27 14:28:00,
2013-03-27 08:43:00,30.6,27.0,30.14,North,358,0.0,0.0,87,0.00,,,0.00,51,weatherlink.com 1.10,2013-03-27 14:43:00,
2013-03-27 08:58:00,30.7,27.0,30.14,NW,313,2.0,3.0,87,0.00,,,0.00,63,weatherlink.com 1.10,2013-03-27 14:58:00,
2013-03-27 09:13:00,31.1,28.0,30.15,NW,313,0.0,2.0,87,0.00,,,0.00,114,weatherlink.com 1.10,2013-03-27 15:13:00,
2013-03-27 09:28:00,32.5,29.0,30.15,NW,310,4.0,4.0,86,0.00,,,0.00,244,weatherlink.com 1.10,2013-03-27 15:28:00,
2013-03-27 09:43:00,34.0,30.0,30.15,NW,310,2.0,3.0,84,0.00,,,0.00,218,weatherlink.com 1.10,2013-03-27 15:43:00,
2013-03-27 09:58:00,35.7,28.0,30.15,North,6,4.0,6.0,74,0.00,,,0.00,113,weatherlink.com 1.10,2013-03-27 15:58:00,
2013-03-27 10:28:00,38.4,30.0,30.15,WNW,298,2.0,6.0,73,0.00,,,0.00,554,weatherlink.com 1.10,2013-03-27 16:28:00,
2013-03-27 10:43:00,39.1,30.0,30.15,WNW,289,2.0,4.0,69,0.00,,,0.00,287,weatherlink.com 1.10,2013-03-27 16:43:00,
2013-03-27 10:59:00,40.2,30.0,30.15,WNW,289,2.0,5.0,66,0.00,,,0.00,243,weatherlink.com 1.10,2013-03-27 16:59:00,
2013-03-27 11:14:00,41.9,30.0,30.14,WNW,299,0.0,4.0,62,0.00,,,0.00,673,weatherlink.com 1.10,2013-03-27 17:14:00,
2013-03-27 11:29:00,42.1,28.0,30.14,West,281,4.0,5.0,57,0.00,,,0.00,255,weatherlink.com 1.10,2013-03-27 17:29:00,
2013-03-27 11:44:00,42.8,28.0,30.14,SW,229,2.0,6.0,56,0.00,,,0.00,668,weatherlink.com 1.10,2013-03-27 17:44:00,
2013-03-27 11:59:00,44.6,29.0,30.13,WNW,287,4.0,6.0,54,0.00,,,0.00,666,weatherlink.com 1.10,2013-03-27 17:59:00,
2013-03-27 12:14:00,45.4,28.0,30.12,West,267,7.0,9.0,51,0.00,,,0.00,694,weatherlink.com 1.10,2013-03-27 18:14:00,
2013-03-27 12:29:00,46.7,29.0,30.11,WNW,301,2.0,7.0,51,0.00,,,0.00,696,weatherlink.com 1.10,2013-03-27 18:29:00,
2013-03-27 12:44:00,47.9,29.0,30.11,WSW,252,2.0,7.0,49,0.00,,,0.00,729,weatherlink.com 1.10,2013-03-27 18:44:00,
2013-03-27 12:59:00,49.7,31.0,30.10,SW,218,4.0,6.0,48,0.00,,,0.00,744,weatherlink.com 1.10,2013-03-27 18:59:00,
2013-03-27 13:14:00,51.0,28.0,30.10,SW,227,4.0,6.0,42,0.00,,,0.00,749,weatherlink.com 1.10,2013-03-27 19:14:00,
2013-03-27 13:29:00,52.1,29.0,30.09,SSW,204,2.0,5.0,41,0.00,,,0.00,777,weatherlink.com 1.10,2013-03-27 19:29:00,
2013-03-27 13:44:00,53.0,28.0,30.09,SW,236,2.0,6.0,38,0.00,,,0.00,768,weatherlink.com 1.10,2013-03-27 19:44:00,
2013-03-27 13:59:00,52.7,29.0,30.09,SW,214,5.0,10.0,40,0.00,,,0.00,779,weatherlink.com 1.10,2013-03-27 19:59:00,
2013-03-27 14:14:00,54.0,29.0,30.08,NNW,348,1.0,7.0,38,0.00,,,0.00,796,weatherlink.com 1.10,2013-03-27 20:14:00,
2013-03-27 14:29:00,54.2,28.0,30.08,South,173,2.0,7.0,37,0.00,,,0.00,269,weatherlink.com 1.10,2013-03-27 20:29:00,
2013-03-27 14:44:00,53.6,28.0,30.07,WNW,283,5.0,8.0,38,0.00,,,0.00,432,weatherlink.com 1.10,2013-03-27 20:44:00,
2013-03-27 14:59:00,54.5,28.0,30.07,WSW,252,0.0,7.0,37,0.00,,,0.00,323,weatherlink.com 1.10,2013-03-27 20:59:00,
2013-03-27 15:14:00,55.7,30.0,30.07,NNE,19,3.0,9.0,38,0.00,,,0.00,292,weatherlink.com 1.10,2013-03-27 21:14:00,
2013-03-27 15:29:00,56.0,31.0,30.07,WNW,291,12.0,15.0,38,0.00,,,0.00,861,weatherlink.com 1.10,2013-03-27 21:29:00,
2013-03-27 15:45:00,56.3,31.0,30.07,NNW,331,10.0,16.0,39,0.00,,,0.00,802,weatherlink.com 1.10,2013-03-27 21:45:00,
2013-03-27 15:59:00,56.3,31.0,30.07,NW,322,7.0,15.0,38,0.00,,,0.00,752,weatherlink.com 1.10,2013-03-27 21:59:00,
2013-03-27 16:14:00,56.3,34.0,30.07,NW,313,17.0,20.0,43,0.00,,,0.00,668,weatherlink.com 1.10,2013-03-27 22:14:00,
2013-03-27 16:29:00,55.5,35.0,30.07,NW,314,19.0,21.0,46,0.00,,,0.00,601,weatherlink.com 1.10,2013-03-27 22:29:00,
2013-03-27 16:45:00,54.3,36.0,30.07,NNW,337,10.0,18.0,50,0.00,,,0.00,295,weatherlink.com 1.10,2013-03-27 22:45:00,
2013-03-27 16:59:00,54.2,36.0,30.07,NW,319,8.0,19.0,50,0.00,,,0.00,640,weatherlink.com 1.10,2013-03-27 22:59:00,
2013-03-27 17:15:00,55.6,35.0,30.07,NW,321,15.0,18.0,46,0.00,,,0.00,459,weatherlink.com 1.10,2013-03-27 23:15:00,
2013-03-27 17:30:00,55.9,36.0,30.07,North,357,9.0,18.0,47,0.00,,,0.00,483,weatherlink.com 1.10,2013-03-27 23:30:00,
2013-03-27 17:45:00,55.8,35.0,30.06,North,7,11.0,19.0,46,0.00,,,0.00,425,weatherlink.com 1.10,2013-03-27 23:45:00,
2013-03-27 18:00:00,55.6,36.0,30.06,NNW,333,10.0,18.0,48,0.00,,,0.00,378,weatherlink.com 1.10,2013-03-28 00:00:00,
2013-03-27 18:15:00,54.7,35.0,30.06,NW,323,13.0,17.0,48,0.00,,,0.00,111,weatherlink.com 1.10,2013-03-28 00:15:00,
2013-03-27 18:30:00,55.3,36.0,30.06,NW,324,9.0,15.0,48,0.00,,,0.00,243,weatherlink.com 1.10,2013-03-28 00:30:00,
2013-03-27 18:45:00,53.7,35.0,30.07,NNW,331,5.0,14.0,49,0.00,,,0.00,58,weatherlink.com 1.10,2013-03-28 00:45:00,
2013-03-27 19:00:00,52.8,34.0,30.07,NNW,344,6.0,11.0,50,0.00,,,0.00,53,weatherlink.com 1.10,2013-03-28 01:00:00,
2013-03-27 19:15:00,53.5,36.0,30.07,NNW,331,8.0,10.0,51,0.00,,,0.00,70,weatherlink.com 1.10,2013-03-28 01:15:00,
2013-03-27 19:30:00,52.3,35.0,30.07,NNW,348,6.0,9.0,52,0.00,,,0.00,33,weatherlink.com 1.10,2013-03-28 01:30:00,
2013-03-27 19:45:00,51.3,34.0,30.07,North,3,6.0,7.0,53,0.00,,,0.00,18,weatherlink.com 1.10,2013-03-28 01:45:00,
2013-03-27 20:00:00,50.7,34.0,30.08,North,8,8.0,11.0,54,0.00,,,0.00,5,weatherlink.com 1.10,2013-03-28 02:00:00,
2013-03-27 20:15:00,50.4,34.0,30.08,North,6,6.0,9.0,54,0.00,,,0.00,0,weatherlink.com 1.10,2013-03-28 02:15:00,
2013-03-27 20:30:00,50.8,34.0,30.09,North,354,6.0,8.0,54,0.00,,,0.00,0,weatherlink.com 1.10,2013-03-28 02:30:00,
2013-03-27 20:45:00,50.6,35.0,30.09,North,352,6.0,10.0,56,0.00,,,0.00,0,weatherlink.com 1.10,2013-03-28 02:45:00,
2013-03-27 21:00:00,49.8,36.0,30.10,NNE,12,6.0,13.0,59,0.00,,,0.00,0,weatherlink.com 1.10,2013-03-28 03:00:00,
2013-03-27 21:15:00,49.4,36.0,30.11,NNE,13,9.0,11.0,61,0.00,,,0.00,0,weatherlink.com 1.10,2013-03-28 03:15:00,
2013-03-27 21:30:00,48.8,36.0,30.11,NNE,31,7.0,9.0,62,0.00,,,0.00,0,weatherlink.com 1.10,2013-03-28 03:30:00,
2013-03-27 21:45:00,48.5,36.0,30.12,NNE,31,5.0,11.0,63,0.00,,,0.00,0,weatherlink.com 1.10,2013-03-28 03:45:00,
2013-03-27 22:00:00,48.5,36.0,30.13,NNE,12,5.0,8.0,62,0.00,,,0.00,0,weatherlink.com 1.10,2013-03-28 04:00:00,
2013-03-27 22:15:00,48.3,35.0,30.13,NNE,13,3.0,10.0,61,0.00,,,0.00,0,weatherlink.com 1.10,2013-03-28 04:15:00,
2013-03-27 22:30:00,47.1,35.0,30.13,East,98,5.0,8.0,63,0.00,,,0.00,0,weatherlink.com 1.10,2013-03-28 04:30:00,
2013-03-27 22:45:00,46.8,35.0,30.13,NE,48,0.0,5.0,63,0.00,,,0.00,0,weatherlink.com 1.10,2013-03-28 04:45:00,
2013-03-27 23:00:00,46.0,34.0,30.14,NE,48,1.0,2.0,64,0.00,,,0.00,0,weatherlink.com 1.10,2013-03-28 05:00:00,
2013-03-27 23:15:00,44.2,34.0,30.14,ENE,77,2.0,5.0,68,0.00,,,0.00,0,weatherlink.com 1.10,2013-03-28 05:15:00,
2013-03-27 23:30:00,43.2,34.0,30.14,NE,43,7.0,8.0,71,0.00,,,0.00,0,weatherlink.com 1.10,2013-03-28 05:30:00,
2013-03-27 23:45:00,43.1,35.0,30.13,NE,48,5.0,8.0,72,0.00,,,0.00,0,weatherlink.com 1.10,2013-03-28 05:45:00,